Location: Melbourne
(37.8666°S, 145.1333°E)
Time: 02:23:16
(UTC+11:00)

Daily predictions for brighter satellites

Satellite Brightness Start Highest point End
(mag) Time Altitude Azimuth Time Altitude Azimuth Time Altitude Azimuth
IGS 5A 4.4 00:05:19 10° SSE 00:08:16 43° SSE 00:08:16 43° SSE
Meteor 1-16 Rocket 4.0 00:10:10 81° W 00:10:11 81° W 00:15:40 10° S
ARGOS 4.2 00:10:47 10° S 00:15:49 39° WSW 00:17:19 33° WNW
Lacrosse 5 3.6 00:16:24 10° SSW 00:20:46 27° SE 00:22:43 21° ESE
Cosmos 2034 Rocket 4.2 00:25:40 54° WNW 00:26:43 62° W 00:33:06 10° S
Nadezhda 4 Rocket 3.8 00:22:12 10° S 00:28:32 86° E 00:28:54 80° NNE
RESURS DK-1 3.9 00:29:41 33° SW 00:29:41 33° SW 00:33:07 10° S
Cosmos 2333 Rocket 4.0 00:25:52 10° S 00:30:20 22° SE 00:32:18 19° E
Cosmos 2322 3.6 00:26:03 10° SSW 00:31:35 81° WSW 00:31:35 81° WSW
Sich 1 4.3 00:27:37 10° S 00:30:36 35° SE 00:30:36 35° SE
Meteor 1-11 4.3 00:26:05 10° SSW 00:31:53 69° W 00:31:53 69° W
H-2A R/B 3.8 00:34:42 35° S 00:34:42 35° S 00:37:05 10° SSW
H-2A R/B 4.4 00:34:56 10° SSW 00:37:41 16° WSW 00:38:46 15° W
Cosmos 2221 3.6 00:39:35 42° SSW 00:39:35 42° SSW 00:42:48 10° S
Cosmos 2058 4.3 00:37:56 10° SSW 00:40:43 36° SW 00:40:43 36° SW
CENTAUR R/B 2.5 00:38:38 10° SSW 00:44:40 59° SE 00:45:10 56° ESE
Cosmos 1340 Rocket 4.3 00:42:32 10° S 00:45:01 36° S 00:45:01 36° S
Cosmos 1634 Rocket 3.9 00:48:05 75° ENE 00:48:12 75° E 00:54:27 10° S
Cosmos 2322 Rocket 4.1 00:46:36 10° WSW 00:50:02 18° W 00:50:02 18° W
Cosmos 2360 Rocket 2.7 00:45:31 10° SSW 00:50:28 49° W 00:50:28 49° W
H-2A R/B 3.5 00:48:09 10° S 00:52:57 31° WSW 00:54:07 29° W
SeaSat 1 3.0 00:54:50 52° WSW 00:54:50 52° WSW 00:58:47 10° SSW
Cosmos 1763 Rocket 3.8 00:52:42 10° SSW 00:57:07 63° SW 00:57:07 63° SW
Helios 1A Rocket 4.3 01:01:08 38° S 01:01:08 38° S 01:03:48 10° S
MOS 1-B Rocket 4.1 00:52:30 10° SSE 01:00:04 86° WSW 01:00:51 72° NNW
COSMOS 2428 2.7 00:57:18 10° SSW 01:02:44 80° SSW 01:02:44 80° SSW
Cosmos 332 Rocket 4.4 00:58:59 10° SSW 01:03:03 55° SSE 01:03:03 55° SSE
Cosmos 967 Rocket 4.4 01:07:16 77° E 01:07:16 77° E 01:13:32 10° SSE
Cosmos 1626 4.2 01:05:36 10° SSW 01:07:24 26° SSW 01:07:24 26° SSW
Cosmos 2195 Rocket 4.4 01:06:45 10° S 01:13:13 90° NW 01:13:26 84° N
Cosmos 1633 Rocket 4.2 01:08:53 10° SSW 01:11:49 40° SSW 01:11:49 40° SSW
Cosmos 841 Rocket 4.0 01:09:16 10° SSW 01:13:24 53° SW 01:13:24 53° SW
Cosmos 2237 Rocket 3.3 01:09:15 10° S 01:14:33 37° ESE 01:15:38 34° E
CZ-2C R/B 4.0 01:16:05 29° W 01:16:05 29° W 01:20:34 10° SW
Cosmos 1503 Rocket 4.5 01:23:17 55° SW 01:23:17 55° SW 01:28:16 10° S
Terra 3.9 01:21:06 10° SSW 01:24:22 18° WSW 01:24:57 18° WSW
ALOS 2 3.8 01:20:40 10° SSE 01:23:41 38° SE 01:23:41 38° SE
Cosmos 2219 4.1 01:24:24 37° W 01:25:10 39° WSW 01:30:31 10° S
Cosmos 1655 Rocket 3.8 01:20:38 10° S 01:26:57 88° E 01:27:09 85° NNE
Cosmos 2228 Rocket 4.3 01:31:40 38° SW 01:31:40 38° SW 01:34:50 10° S
NOSS 0 Rocket 3.9 01:28:37 10° SSW 01:34:53 75° ESE 01:35:22 70° ENE
USA 215 4.1 01:28:42 10° ENE 01:34:55 47° SE 01:41:12 10° SW
Cosmos 2297 Rocket 2.7 01:35:53 51° E 01:35:53 51° E 01:40:50 10° SSE
Cosmos 540 Rocket 3.7 01:30:56 10° SSW 01:35:27 66° S 01:35:27 66° S
Cosmos 2082 3.9 01:37:00 65° ESE 01:37:00 65° ESE 01:42:13 10° SSE
Cosmos 2227 Rocket 2.2 01:40:26 77° ESE 01:40:26 77° ESE 01:45:50 10° SSE
Cosmos 1428 Rocket 4.4 01:34:09 10° S 01:40:33 87° E 01:40:55 80° NNE
CZ-4B R/B 4.2 01:40:26 10° SSE 01:41:13 16° SE 01:41:13 16° SE
Cosmos 1300 4.4 01:46:49 32° SSE 01:46:49 32° SSE 01:49:03 10° S
Cosmos 2219 Rocket 2.3 01:39:44 10° SSW 01:44:52 69° WSW 01:44:52 69° WSW
Cosmos 1980 3.7 01:44:21 10° SSW 01:50:05 79° ESE 01:50:05 79° ESE
Cosmos 371 Rocket 4.3 01:49:51 10° SSW 01:53:15 39° SW 01:53:15 39° SW
Lacrosse 5 3.1 01:58:59 10° SW 02:01:51 32° WSW 02:01:51 32° WSW
Cosmos 1538 Rocket 4.5 02:01:26 10° S 02:06:38 53° ESE 02:07:09 51° E
Cosmos 2333 Rocket 2.6 02:09:17 10° SSW 02:14:16 51° W 02:14:16 51° W
Cosmos 1151 Rocket 4.5 02:16:11 30° SW 02:16:11 30° SW 02:19:06 10° SSW
Meteor 2-10 4.0 02:16:40 76° ESE 02:16:40 76° ESE 02:21:34 10° SSE
IRS-P3 4.0 02:17:29 78° W 02:17:29 78° W 02:22:46 10° SSW
ADEOS 4.5 02:16:24 36° ENE 02:17:44 43° ESE 02:22:44 10° S
In-Cosmos 22 Rocket 4.2 02:15:32 10° SSW 02:21:21 73° W 02:21:31 73° WNW
Landsat 5 4.0 02:18:54 10° S 02:22:38 59° S 02:22:38 59° S
Aureole 2 Rocket 4.4 02:25:39 10° S 02:27:42 29° SSE 02:27:42 29° SSE
SL-16 R/B 2.4 02:25:46 10° SSW 02:31:32 69° ESE 02:32:59 49° NE
ATLAS CENTAUR R/B 2.3 02:32:57 41° SSE 02:32:57 41° SSE 02:35:39 10° SSE
CENTAUR R/B 4.2 02:30:36 10° WSW 02:32:19 15° W 02:32:19 15° W
Cosmos 1726 4.3 02:36:48 19° SW 02:36:48 19° SW 02:38:34 10° SSW
ARIANE 5 R/B 3.3 02:34:13 35° ENE 02:35:53 47° ESE 02:40:54 10° S
CBERS-1 4.0 02:36:16 70° W 02:36:16 70° W 02:41:16 10° SSW
Cosmos 1777 Rocket 3.8 02:37:36 84° NW 02:37:46 88° WSW 02:43:05 10° SSE
Cosmos 304 Rocket 4.1 02:33:24 10° SSW 02:37:30 57° WSW 02:37:30 57° WSW
Cosmos 2266 Rocket 4.0 02:32:54 10° SSW 02:39:08 61° W 02:39:48 58° WNW
USA 81 4.1 02:38:42 64° NE 02:39:18 71° E 02:44:38 10° S
Cosmos 968 Rocket 4.1 02:39:46 43° WSW 02:40:02 44° WSW 02:45:02 10° S
IRS-1D 4.2 02:39:36 37° NE 02:41:22 54° ESE 02:46:39 10° S
NPP 3.9 02:41:37 54° W 02:41:37 54° W 02:46:48 10° SSW
CZ-2C R/B 3.4 02:36:09 10° S 02:41:38 55° WSW 02:42:06 53° W
Cosmos 1825 4.2 02:42:59 10° SSE 02:46:06 22° ESE 02:47:05 20° E
Resurs 1-4 Rocket 2.6 02:47:11 37° NE 02:49:05 57° ESE 02:54:19 10° S
Cosmos 1892 3.7 02:46:36 10° SSW 02:49:25 43° SSW 02:49:25 43° SSW
Cosmos 2237 Rocket 3.4 02:53:36 10° SW 02:57:25 27° W 02:57:25 27° W
Nadezhda 2 Rocket 4.4 02:54:05 10° SSW 03:00:13 66° W 03:01:30 53° NNW
PSLV R/B 4.3 02:57:32 10° SSE 03:01:40 55° E 03:01:50 55° ENE
Cosmos 1818 3.4 03:02:01 65° NNW 03:02:51 88° ENE 03:08:16 10° SSE
Cosmos 1862 Rocket 3.6 03:07:46 64° NE 03:08:16 72° E 03:12:47 10° SSE
Cosmos 1745 Rocket 4.4 03:05:09 10° S 03:11:22 58° E 03:15:17 23° NNE
Cosmos 1455 3.3 03:12:31 34° SW 03:12:31 34° SW 03:15:26 10° S
Cosmos 1417 Rocket 4.4 03:10:33 47° NNW 03:12:31 80° W 03:18:49 10° S
Spot 4 Rocket 4.1 03:14:09 52° WNW 03:14:35 54° W 03:19:43 10° SSW
OTV 4 3.2 03:18:37 14° E 03:18:37 14° E 03:19:08 10° E
USA 215 3.4 03:15:40 37° N 03:17:50 50° NW 03:24:13 10° SW
CZ-2D R/B 2.0 03:17:56 49° N 03:19:21 76° WNW 03:24:39 10° SSW
Cosmos 2297 Rocket 3.9 03:17:40 18° W 03:19:40 22° SW 03:24:00 10° S
CZ-2D R/B 4.3 03:21:15 26° NE 03:23:13 47° ESE 03:27:10 10° S
Cosmos 2227 4.2 03:22:38 47° NW 03:24:22 79° WSW 03:30:12 10° SSE
Cosmos 2227 Rocket 4.3 03:22:14 12° W 03:24:51 15° SW 03:28:06 10° SSW
Cosmos 2084 4.5 03:20:25 10° SSW 03:25:06 50° SE 03:29:30 10° NE
Aureole 1 Rocket 4.3 03:21:42 10° SW 03:25:57 30° W 03:25:57 30° W
S3M 4.0 03:23:54 39° NNW 03:26:30 81° W 03:32:59 10° S
Cosmos 292 Rocket 3.7 03:22:56 10° SSW 03:27:53 89° ESE 03:29:58 35° NNE
Cosmos 44 Rocket 3.4 03:23:13 10° SW 03:28:09 54° WNW 03:28:49 50° NW
Cosmos 1603 3.9 03:23:51 10° SSW 03:29:41 76° ESE 03:35:01 12° NNE
Cosmos 1400 Rocket 4.2 03:28:02 10° S 03:31:56 38° ESE 03:34:55 16° NE
Cosmos 1862 3.3 03:29:57 10° S 03:34:08 83° E 03:35:15 48° NNE
IRAS Rocket 4.2 03:31:44 27° NNE 03:34:56 85° WNW 03:40:36 10° SSW
Cosmos 1733 Rocket 3.2 03:30:51 10° SSW 03:35:15 56° W 03:35:49 51° NW
Cosmos 1242 Rocket 3.5 03:34:50 35° NE 03:35:42 42° E 03:39:07 10° SSE
Okean O Rocket 3.3 03:32:19 10° NE 03:36:19 33° ESE 03:40:21 10° S
USA 229 DEB 3.7 03:34:07 10° SSW 03:41:13 84° ESE 03:48:10 10° NNE
USA 229 3.8 03:34:12 10° SSW 03:41:20 84° ESE 03:48:16 10° NNE
Cosmos 2263 Rocket 3.1 03:38:32 21° NNE 03:41:48 41° ENE 03:47:05 10° SE
UNKNOWN OBJECT B 2.8 03:47:19 49° NNW 03:48:10 65° W 03:52:12 10° SSW
Cosmos 1943 4.0 03:45:52 10° SSW 03:51:26 51° ESE 03:56:54 10° NE
ISS -3.3 03:53:17 60° N 03:53:37 65° NE 03:56:56 10° SE
Okean 2 Rocket 4.1 03:53:54 10° S 03:58:15 46° E 04:02:31 10° NNE
CZ-4B R/B 3.7 03:56:43 10° NNE 04:01:55 59° ESE 04:07:13 10° S
Cosmos 1408 3.5 04:01:15 10° SSW 04:04:32 31° W 04:04:40 31° W
Cosmos 1782 Rocket 3.7 04:01:43 10° S 04:06:16 78° E 04:10:15 13° N
Cosmos 1315 Rocket 3.4 04:03:52 10° S 04:07:48 55° E 04:11:41 10° NNE
GP-B 3.6 04:06:38 10° S 04:11:08 61° E 04:15:17 12° N
Cosmos 1908 Rocket 3.8 04:07:22 10° SSW 04:11:43 51° W 04:13:57 26° NNW
Cosmos 2221 Rocket 3.6 04:09:24 27° NNW 04:11:52 72° W 04:16:29 10° S
Tiangong 1 3.5 04:11:45 11° NNE 04:12:05 11° NE 04:13:03 10° ENE
Cosmos 1782 4.5 04:10:40 10° NNE 04:14:14 31° E 04:17:50 10° SSE
SL-16 R/B 3.9 04:11:54 10° WSW 04:14:49 15° W 04:14:49 15° W
ADEOS Rocket 3.6 04:07:35 10° N 04:15:10 75° WNW 04:23:05 10° SSW
ARIANE 5 R/B 4.0 04:14:33 19° WNW 04:15:13 19° W 04:18:53 10° SW
Meteor 2-11 Rocket 4.4 04:12:13 20° NNW 04:16:30 71° W 04:22:41 10° S
Cosmos 44 4.1 04:12:10 10° SW 04:16:47 35° WNW 04:20:02 18° NNW
ERS-2 2.4 04:17:25 26° NNW 04:19:12 50° W 04:22:53 10° SSW
Cosmos 1825 3.7 04:18:39 10° SW 04:21:33 20° W 04:21:58 20° W
CZ-4B R/B 3.0 04:24:05 10° N 04:28:14 84° WNW 04:32:41 10° SSW
BREEZE-M DEB (TANK) 3.6 04:25:35 10° SW 04:28:25 36° SSE 04:30:47 10° E
Cosmos 2150 Rocket 4.4 04:25:38 21° NW 04:28:51 48° WSW 04:33:54 10° S
Resurs 1-4 Rocket 3.7 04:28:16 15° WNW 04:29:15 16° W 04:32:32 10° SW
Okean 1-7 3.2 04:26:27 21° NNW 04:29:18 58° W 04:33:40 10° S
PSLV R/B 4.2 04:25:46 10° NNE 04:30:07 61° ESE 04:34:29 10° S
Hubble Space Telescope 3.0 04:35:05 10° N 04:35:05 10° N 04:35:14 10° N
SL-08 R/B 3.7 04:30:46 10° S 04:35:27 48° WSW 04:38:51 17° NW
Meteor 2-10 Rocket 3.6 04:35:02 16° NNW 04:39:06 57° W 04:44:08 10° S
IRS-1C Rocket 4.4 04:38:01 10° N 04:43:07 47° W 04:48:17 10° SSW
Cosmos 1937 Rocket 4.1 04:39:35 17° NW 04:43:17 42° WSW 04:48:19 10° S
Meteor 1-14 Rocket 4.4 04:37:41 10° SSW 04:43:35 58° W 04:49:17 10° N
APEX 3.9 04:41:16 12° N 04:44:52 62° ENE 04:49:54 10° SSE
Cosmos 1709 Rocket 4.2 04:40:13 10° SSW 04:46:12 52° W 04:52:07 10° NNW
Milstar 3 Cent rocket 4.3 04:41:29 12° NNW 04:47:07 21° N 04:51:35 10° ENE
Meteor 1-25 Rocket 4.3 04:41:24 10° S 04:47:15 82° W 04:53:05 10° N
ADEOS II 2.1 04:45:40 10° N 04:50:57 79° WNW 04:56:19 10° SSW
OTV 4 1.3 04:50:16 14° W 04:52:26 31° NNW 04:55:10 10° NE
Cosmos 1125 Rocket 3.9 04:47:59 10° N 04:53:08 64° ENE 04:58:21 10° SSE
Cosmos 1461 3.1 04:48:30 10° SW 04:53:13 71° WNW 04:57:51 10° NNE
SL-16 R/B 2.6 04:48:43 10° SSE 04:55:05 87° ENE 05:01:21 10° NNW
Feng Yun 1-1 Rocket 4.4 04:51:02 10° NNE 04:56:26 80° ESE 05:01:59 10° SSW
USA 161 0.9 04:54:51 10° SSE 04:57:14 82° ENE 04:59:27 10° N
SL-8 R/B 4.0 04:55:25 12° NW 04:59:47 65° NE 05:04:38 10° ESE
NOSS 3-1 (C) 3.3 04:54:56 10° SW 05:01:14 68° WNW 05:06:55 10° NNE
ATLAS 3B CENTAUR R/B 4.1 04:58:04 10° NNW 05:03:23 31° NE 05:15:41 10° E
Meteor 1-10 Rocket 4.2 05:00:25 10° NNW 05:05:59 73° W 05:11:37 10° S
COSMOS 2406 4.4 05:04:44 10° SSW 05:10:20 49° ESE 05:15:51 10° NE
Meteor 1-27 Rocket 4.1 05:05:46 10° N 05:11:22 72° E 05:17:11 10° SSE
SL-08 ROCKET BODY 4.5 05:05:53 10° S 05:12:08 77° W 05:18:13 10° N
Okean O Rocket 3.0 05:09:23 10° NW 05:12:43 20° W 05:16:05 10° SW
Meteor 1-31 Rocket 3.0 05:10:23 10° NNE 05:14:16 78° ESE 05:18:15 10° S
Okean-O 2.7 05:15:44 10° N 05:20:08 58° W 05:24:35 10° SSW
Meteor PRIRODA 3.8 05:17:04 10° N 05:20:46 55° W 05:24:31 10° SSW
